User: anonymous   Login
Location: Fort Wayne
(41.1310°N, 85.1290°W)
Time: 04:26:33
(UTC-04:00)
Language:

Helios 1B - Orbit

View from above orbital plane
View from above orbital plane
View from above satellite
View from above satellite

Ground track
Ground track

The orbit data is extracted from the following two-line orbital elements,

1 25977U 99064A   18114.88898499  .00397989  00000-0  44544-1 0  9993
2 25977  98.1756 237.6371 0002930  35.9199 324.2211 14.84882763990180
Epoch (UTC): 24 April 2018 21:20:08
Eccentricity: 0.0002930
inclination: 98.1756°
perigee height: 612 km
apogee height: 616 km
right ascension of ascending node: 237.6371°
argument of perigee: 35.9199°
revolutions per day: 14.84882763
mean anomaly at epoch: 324.2211°
orbit number at epoch: 99018

The dashed part of the orbit path shows where the satellite is in the earth's shadow,  

DLR